Weather History for KHAI - April, 2014

Change the Weather History Date:

Wednesday, April 16, 2014

  Actual Average Record
Temperature  
Mean Temperature 36 °F -  
Max Temperature 47 °F 60 °F 83 °F (1976)
Min Temperature 24 °F 38 °F 24 °F (1962)
Degree Days  
Heating Degree Days 30    
Moisture  
Dew Point 18 °F    
Average Humidity 49    
Maximum Humidity 76    
Minimum Humidity 30    
Precipitation  
Precipitation 0.00 in - - ()
Sea Level Pressure  
Sea Level Pressure 30.31 in    
Wind  
Wind Speed 6 mph (SSE)    
Max Wind Speed 17 mph    
Max Gust Speed 25 mph    
Visibility 10 miles    
Events      
Averages and records for this station are not official NWS values.
T = Trace of Precipitation, MM = Missing Value Source: NWS Daily Summary

Daily Weather History Graph

Daily Weather History Graph

Search for Another Location

Airport or City:

Trip Planner

Search our weather history database for the weather conditions in past years. The results will help you decide how hot, cold, wet, or windy it might be!

Date:

Astronomy

Apr. 16, 2014 Rise Set
Actual Time 7:00 AM EDT 8:24 PM EDT
Civil Twilight 6:31 AM EDT 8:53 PM EDT
Nautical Twilight 5:56 AM EDT 9:28 PM EDT
Astronomical Twilight 5:19 AM EDT 10:05 PM EDT
Moon 10:09 PM EDT (4/16) 7:46 AM EDT (4/16)
Length of Visible Light 14h 22m
Length of Day
13h 24m
Full, 98% of the Moon is Illuminated
Apr 16
Full
Apr 22
Last Quarter
Apr 29
New
May 6
First Quarter
May 14
Full

Hourly Weather History & Observations

Time (EDT) Temp. Windchill Dew Point Humidity Pressure Visibility Wind Dir Wind Speed Gust Speed Precip Events Conditions
12:15 AM 25.5 °F - 13.1 °F 59% 30.24 in 10.0 mi Calm Calm - N/A   Clear
12:35 AM 26.4 °F - 15.3 °F 63% 30.24 in 10.0 mi Calm Calm - N/A   Clear
12:55 AM 26.8 °F - 16.5 °F 65% 30.25 in 10.0 mi Calm Calm - N/A   Clear
1:15 AM 26.1 °F - 16.7 °F 68% 30.25 in 10.0 mi Calm Calm - N/A   Clear
1:35 AM 26.4 °F - 16.2 °F 65% 30.25 in 10.0 mi Calm Calm - N/A   Clear
1:54 AM 25.2 °F - 16.0 °F 68% 30.25 in 10.0 mi Calm Calm - N/A   Clear
2:15 AM 25.7 °F - 16.5 °F 68% 30.26 in 10.0 mi Calm Calm - N/A   Clear
2:35 AM 25.7 °F - 16.2 °F 67% 30.26 in 10.0 mi Calm Calm - N/A   Clear
2:54 AM 25.2 °F - 16.3 °F 69% 30.26 in 10.0 mi Calm Calm - N/A   Clear
3:15 AM 25.2 °F - 16.7 °F 70% 30.27 in 10.0 mi Calm Calm - N/A   Clear
3:35 AM 24.6 °F - 17.4 °F 74% 30.27 in 10.0 mi Calm Calm - N/A   Clear
3:54 AM 25.0 °F - 18.3 °F 76% 30.28 in 10.0 mi Calm Calm - N/A   Clear
4:15 AM 24.8 °F - 18.0 °F 75% 30.29 in 10.0 mi Calm Calm - N/A   Clear
4:35 AM 25.5 °F - 19.0 °F 76% 30.30 in 10.0 mi Calm Calm - N/A   Clear
4:55 AM 25.3 °F 19.7 °F 17.4 °F 72% 30.31 in 10.0 mi South 4.6 mph - N/A   Clear
5:15 AM 24.8 °F 19.1 °F 15.6 °F 68% 30.31 in 10.0 mi South 4.6 mph - N/A   Clear
5:35 AM 25.2 °F 20.9 °F 15.8 °F 68% 30.32 in 10.0 mi SSE 3.5 mph - N/A   Clear
5:55 AM 25.7 °F - 15.6 °F 66% 30.32 in 10.0 mi Calm Calm - N/A   Clear
6:15 AM 26.4 °F 20.9 °F 15.3 °F 63% 30.33 in 10.0 mi SSE 4.6 mph - N/A   Clear
6:34 AM 26.6 °F 20.0 °F 15.3 °F 62% 30.33 in 10.0 mi SSE 5.8 mph - N/A   Clear
6:55 AM 26.6 °F 21.2 °F 14.9 °F 61% 30.34 in 10.0 mi SSE 4.6 mph - N/A   Clear
7:15 AM 27.0 °F 20.5 °F 14.9 °F 60% 30.34 in 10.0 mi SE 5.8 mph - N/A   Clear
7:34 AM 27.5 °F 21.1 °F 14.4 °F 58% 30.35 in 10.0 mi SE 5.8 mph - N/A   Clear
7:55 AM 28.6 °F 22.4 °F 14.0 °F 54% 30.35 in 10.0 mi SSE 5.8 mph - N/A   Clear
8:15 AM 29.8 °F 23.9 °F 14.7 °F 53% 30.37 in 10.0 mi SSE 5.8 mph - N/A   Clear
8:34 AM 30.7 °F 22.6 °F 13.6 °F 49% 30.38 in 10.0 mi South 9.2 mph - N/A   Clear
8:55 AM 31.6 °F 24.4 °F 14.2 °F 49% 30.38 in 10.0 mi SSE 8.1 mph - N/A   Clear
9:15 AM 32.4 °F 24.6 °F 14.9 °F 49% 30.39 in 10.0 mi South 9.2 mph - N/A   Clear
9:34 AM 33.3 °F 25.1 °F 13.8 °F 45% 30.39 in 10.0 mi South 10.4 mph 17.3 mph N/A   Clear
9:55 AM 34.9 °F 26.2 °F 14.5 °F 43% 30.40 in 10.0 mi South 12.7 mph - N/A   Clear
10:15 AM 35.8 °F 26.5 °F 13.5 °F 40% 30.40 in 10.0 mi South 15.0 mph - N/A   Clear
10:35 AM 37.0 °F 30.4 °F 14.7 °F 40% 30.40 in 10.0 mi South 9.2 mph - N/A   Clear
10:55 AM 38.1 °F 29.8 °F 14.7 °F 39% 30.39 in 10.0 mi South 13.8 mph 18.4 mph N/A   Clear
11:14 AM 38.5 °F 30.7 °F 15.1 °F 39% 30.39 in 10.0 mi South 12.7 mph 18.4 mph N/A   Clear
11:35 AM 39.6 °F 32.1 °F 16.2 °F 39% 30.40 in 10.0 mi SSE 12.7 mph - N/A   Clear
11:55 AM 40.3 °F 33.0 °F 16.0 °F 37% 30.40 in 10.0 mi South 12.7 mph - N/A   Clear
12:14 PM 41.0 °F 34.7 °F 16.7 °F 37% 30.39 in 10.0 mi South 10.4 mph 16.1 mph N/A   Clear
12:35 PM 42.1 °F 35.2 °F 16.9 °F 36% 30.38 in 10.0 mi South 12.7 mph 17.3 mph N/A   Clear
12:55 PM 42.8 °F 37.5 °F 16.7 °F 35% 30.37 in 10.0 mi SSE 9.2 mph - N/A   Clear
1:14 PM 42.8 °F 36.6 °F 16.3 °F 34% 30.36 in 10.0 mi SSE 11.5 mph 17.3 mph N/A   Clear
1:35 PM 43.9 °F 37.9 °F 16.7 °F 34% 30.36 in 10.0 mi SSE 11.5 mph - N/A   Clear
1:55 PM 44.6 °F 40.2 °F 17.6 °F 34% 30.35 in 10.0 mi South 8.1 mph 18.4 mph N/A   Clear
2:14 PM 45.3 °F 39.0 °F 16.9 °F 32% 30.34 in 10.0 mi SSE 13.8 mph - N/A   Clear
2:35 PM 45.3 °F 39.3 °F 16.2 °F 31% 30.33 in 10.0 mi SSE 12.7 mph 19.6 mph N/A   Clear
2:55 PM 45.9 °F 39.7 °F 16.3 °F 31% 30.33 in 10.0 mi SE 13.8 mph 25.3 mph N/A   Clear
3:15 PM 46.8 °F - 16.9 °F 30% 30.32 in 10.0 mi SE 17.3 mph 21.9 mph N/A   Clear
3:35 PM 46.4 °F 40.1 °F 16.7 °F 31% 30.32 in 10.0 mi SE 15.0 mph 20.7 mph N/A   Clear
3:54 PM 47.3 °F - 17.2 °F 30% 30.30 in 10.0 mi South 11.5 mph 23.0 mph N/A   Clear
4:15 PM 46.6 °F - 17.2 °F 31% 30.30 in 10.0 mi SSE 15.0 mph 21.9 mph N/A   Clear
4:35 PM 46.6 °F - 17.6 °F 32% 30.30 in 10.0 mi SSE 11.5 mph 24.2 mph N/A   Clear
4:55 PM 47.7 °F - 18.1 °F 31% 30.29 in 10.0 mi SSE 11.5 mph 23.0 mph N/A   Clear
5:15 PM 46.9 °F - 17.6 °F 31% 30.29 in 10.0 mi SSE 16.1 mph 24.2 mph N/A   Clear
5:35 PM 47.3 °F - 18.3 °F 32% 30.28 in 10.0 mi SE 13.8 mph 18.4 mph N/A   Clear
5:55 PM 46.9 °F - 18.3 °F 32% 30.27 in 10.0 mi SSE 12.7 mph 19.6 mph N/A   Clear
6:15 PM 47.3 °F - 18.5 °F 32% 30.27 in 10.0 mi ESE 13.8 mph 21.9 mph N/A   Clear
6:34 PM 47.1 °F - 18.9 °F 33% 30.27 in 10.0 mi SE 12.7 mph 19.6 mph N/A   Clear
6:55 PM 46.0 °F 40.6 °F 19.2 °F 34% 30.27 in 10.0 mi SE 11.5 mph - N/A   Clear
7:15 PM 46.4 °F 39.8 °F 19.4 °F 34% 30.27 in 10.0 mi SE 16.1 mph 20.7 mph N/A   Clear
7:34 PM 45.9 °F 40.0 °F 19.8 °F 35% 30.27 in 10.0 mi SSE 12.7 mph 17.3 mph N/A   Clear
7:55 PM 45.0 °F 38.5 °F 20.1 °F 37% 30.27 in 10.0 mi SE 13.8 mph 19.6 mph N/A   Clear
8:15 PM 44.2 °F 38.8 °F 21.6 °F 41% 30.27 in 10.0 mi SE 10.4 mph 17.3 mph N/A   Clear
8:34 PM 43.7 °F 37.7 °F 21.2 °F 41% 30.26 in 10.0 mi ESE 11.5 mph 18.4 mph N/A   Clear
8:55 PM 42.8 °F 36.6 °F 22.6 °F 45% 30.27 in 10.0 mi ESE 11.5 mph - N/A   Clear
9:15 PM 42.1 °F 35.7 °F 23.0 °F 47% 30.27 in 10.0 mi ESE 11.5 mph - N/A   Clear
9:34 PM 41.5 °F 35.9 °F 23.9 °F 50% 30.27 in 10.0 mi ESE 9.2 mph - N/A   Clear
9:55 PM 40.8 °F 35.0 °F 24.4 °F 52% 30.28 in 10.0 mi ESE 9.2 mph - N/A   Clear
10:15 PM 40.6 °F 35.4 °F 25.2 °F 54% 30.28 in 10.0 mi ESE 8.1 mph - N/A   Clear
10:35 PM 40.6 °F 34.8 °F 25.5 °F 55% 30.27 in 10.0 mi ESE 9.2 mph - N/A   Clear
10:55 PM 40.8 °F 34.1 °F 25.7 °F 55% 30.27 in 10.0 mi ESE 11.5 mph - N/A   Clear
11:15 PM 40.6 °F 34.8 °F 25.9 °F 56% 30.27 in 10.0 mi ESE 9.2 mph - N/A   Clear
11:35 PM 40.3 °F 33.9 °F 26.4 °F 58% 30.27 in 10.0 mi ESE 10.4 mph - N/A   Clear
11:55 PM 38.5 °F 31.1 °F 27.9 °F 66% 30.27 in 10.0 mi ESE 11.5 mph 19.6 mph N/A   Clear